Stations météo

réclame
Mon MeteoGroup
Stockholm/Arlanda, Suède (2460): Température de l'air & dewpoint: 18.01.2020 16:00:00 - 24.01.2020 16:00:00 (CET)Stockholm/Arlanda, Suède (2460): Vitesse du vent: 18.01.2020 16:00:00 - 24.01.2020 16:00:00 (CET)Stockholm/Arlanda, Suède (2460): Direction du vent: 18.01.2020 16:00:00 - 24.01.2020 16:00:00 (CET)Stockholm/Arlanda, Suède (2460): reduced air pressure: 18.01.2020 16:00:00 - 24.01.2020 16:00:00 (CET)Stockholm/Arlanda, Suède (2460): visibility: 18.01.2020 16:00:00 - 24.01.2020 16:00:00 (CET)
Date & Time tt [°C] td [°C] ff [km/h] ff [knt] dd ppp [hPa] vv [km]
24.01.2020 16:00:00 - - - - - - -
24.01.2020 15:00:00 5,5 1,2 14 8 WSW 1002,7 50
24.01.2020 14:00:00 6,3 1,8 18 10 W 1003,0 50
24.01.2020 13:00:00 6,4 2,3 18 10 W 1003,5 45
24.01.2020 12:00:00 6,2 2,5 14 8 W 1003,6 45
24.01.2020 11:00:00 5,5 2,5 14 8 W 1003,9 45
24.01.2020 10:00:00 5,2 3,1 18 10 WSW 1003,9 40
24.01.2020 09:00:00 4,5 2,5 14 8 WSW 1003,6 50
24.01.2020 08:00:00 4,5 2,5 18 10 WSW 1003,8 50
24.01.2020 07:00:00 4,2 2,2 18 10 WSW 1003,6 45
24.01.2020 06:00:00 4,1 2,1 14 8 WSW 1003,8 50
24.01.2020 05:00:00 3,8 2,2 11 6 WSW 1004,7 50
24.01.2020 04:00:00 4,2 2,2 14 8 WSW 1004,6 45
24.01.2020 03:00:00 4,7 2,6 14 8 WSW 1005,2 50
24.01.2020 02:00:00 4,9 2,8 14 8 WSW 1005,7 45
24.01.2020 01:00:00 5,1 3,0 18 10 WSW 1006,1 50
24.01.2020 00:00:00 5,0 3,0 14 8 WSW 1006,3 50
23.01.2020 23:00:00 5,0 3,0 18 10 WSW 1006,8 45
23.01.2020 22:00:00 4,7 2,7 14 8 WSW 1007,5 50
23.01.2020 21:00:00 4,3 2,3 18 10 WSW 1007,7 45
23.01.2020 20:00:00 3,9 1,9 14 8 WSW 1008,7 45
23.01.2020 19:00:00 3,3 1,7 14 8 WSW 1008,8 45
23.01.2020 18:00:00 3,0 1,4 14 8 WSW 1009,3 40
23.01.2020 17:00:00 2,5 0,7 18 10 WSW 1010,0 45
23.01.2020 16:00:00 2,0 -0,3 14 8 WSW 1011,0 45
23.01.2020 15:00:00 2,2 -1,6 18 10 SW 1011,6 50
23.01.2020 14:00:00 2,0 -2,5 18 10 SW 1012,7 45
23.01.2020 13:00:00 1,5 -3,6 18 10 SW 1013,6 50
23.01.2020 12:00:00 1,5 -4,0 22 12 SW 1015,2 50
23.01.2020 11:00:00 0,3 -3,8 14 8 SW 1016,2 45
23.01.2020 10:00:00 -0,7 -4,8 14 8 SSW 1017,4 50
23.01.2020 09:00:00 -2,3 -5,3 11 6 S 1018,6 35
23.01.2020 08:00:00 -2,9 -5,9 7 4 SSW 1020,2 50
23.01.2020 07:00:00 -3,5 -6,8 7 4 SSW 1021,3 45
23.01.2020 06:00:00 -3,4 -6,8 4 2 SSW 1022,3 50
23.01.2020 05:00:00 -2,7 -7,0 4 2 SW 1023,2 50
23.01.2020 04:00:00 -2,9 -6,9 7 4 WSW 1023,8 50
23.01.2020 03:00:00 -2,7 -6,5 7 4 WSW 1024,5 50
23.01.2020 02:00:00 -2,0 -6,4 7 4 WSW 1024,8 50
23.01.2020 01:00:00 -2,3 -6,1 7 4 W 1024,8 50
23.01.2020 00:00:00 -2,0 -5,8 7 4 W 1024,8 50
22.01.2020 23:00:00 -2,0 -6,0 7 4 W 1024,8 50
22.01.2020 22:00:00 -0,5 -5,5 7 4 WNW 1024,6 50
22.01.2020 21:00:00 0,4 -5,2 7 4 WNW 1024,7 50
22.01.2020 20:00:00 0,7 -4,7 7 4 NW 1024,3 50
22.01.2020 19:00:00 0,7 -4,5 4 2 WNW 1024,1 50
22.01.2020 18:00:00 1,0 -4,8 7 4 WNW 1023,3 50
22.01.2020 17:00:00 1,7 -4,8 7 4 WNW 1022,6 50
22.01.2020 16:00:00 2,6 -4,6 11 6 NW 1022,1 50
22.01.2020 15:00:00 3,3 -4,4 11 6 NW 1021,0 50
22.01.2020 14:00:00 3,8 -4,2 14 8 NW 1020,1 50
22.01.2020 13:00:00 3,8 -4,4 18 10 NW 1018,7 45
22.01.2020 12:00:00 3,5 -5,4 14 8 NW 1017,6 50
22.01.2020 11:00:00 2,8 -6,3 14 8 WNW 1016,6 45
22.01.2020 10:00:00 2,1 -6,2 14 8 W 1015,9 50
22.01.2020 09:00:00 1,2 -6,2 14 8 W 1014,4 50
22.01.2020 08:00:00 1,6 -6,2 18 10 W 1013,6 50
22.01.2020 07:00:00 1,9 -5,7 18 10 W 1013,3 50
22.01.2020 06:00:00 2,3 -5,3 18 10 W 1012,9 50
22.01.2020 05:00:00 2,6 -4,8 18 10 W 1013,0 50
22.01.2020 04:00:00 2,6 -4,4 18 10 W 1012,9 50
22.01.2020 03:00:00 3,3 -4,6 18 10 W 1013,2 50
22.01.2020 02:00:00 3,8 -4,4 14 8 W 1012,9 50
22.01.2020 01:00:00 4,5 -4,0 18 10 W 1013,3 50
22.01.2020 00:00:00 4,8 -4,2 18 10 W 1013,1 50
21.01.2020 23:00:00 5,1 -4,0 18 10 W 1013,4 50
21.01.2020 22:00:00 5,5 -4,1 22 12 W 1014,7 50
21.01.2020 21:00:00 5,1 -3,7 18 10 WSW 1015,4 50
21.01.2020 20:00:00 5,1 -3,0 18 10 W 1015,9 50
21.01.2020 19:00:00 4,7 -0,5 11 6 WSW 1016,9 50
21.01.2020 18:00:00 4,5 -1,9 14 8 WSW 1017,7 50
21.01.2020 17:00:00 5,8 -1,4 14 8 W 1018,3 50
21.01.2020 16:00:00 5,9 0,2 14 8 W 1018,8 50
21.01.2020 15:00:00 4,3 -0,1 11 6 WSW 1018,3 50
21.01.2020 14:00:00 5,6 0,6 7 4 W 1018,6 50
21.01.2020 13:00:00 6,6 1,7 11 6 W 1017,8 50
21.01.2020 12:00:00 6,8 1,5 11 6 W 1018,2 45
21.01.2020 11:00:00 7,0 1,9 11 6 WNW 1017,4 50
21.01.2020 10:00:00 6,5 3,3 11 6 NW 1017,2 50
21.01.2020 09:00:00 6,6 3,9 18 10 W 1016,2 28
21.01.2020 08:00:00 6,4 3,7 18 10 W 1014,9 24
21.01.2020 07:00:00 7,0 4,3 25 14 W 1014,5 22
21.01.2020 06:00:00 6,8 4,4 22 12 W 1014,4 26
21.01.2020 05:00:00 6,9 4,7 25 14 WSW 1014,6 26
21.01.2020 04:00:00 6,7 4,4 29 16 WSW 1014,8 25
21.01.2020 03:00:00 6,9 4,3 32 18 WSW 1015,4 28
21.01.2020 02:00:00 7,0 4,6 32 18 WSW 1016,2 30
21.01.2020 01:00:00 6,7 4,4 29 16 WSW 1016,8 40
21.01.2020 00:00:00 6,2 4,0 25 14 WSW 1017,6 35
20.01.2020 23:00:00 5,8 3,3 22 12 WSW 1018,6 40
20.01.2020 22:00:00 5,8 3,0 29 16 WSW 1019,5 30
20.01.2020 21:00:00 5,1 2,1 22 12 WSW 1020,6 27
20.01.2020 20:00:00 5,1 2,1 22 12 WSW 1020,6 27
20.01.2020 19:00:00 4,8 1,8 22 12 WSW 1021,7 25
20.01.2020 18:00:00 4,7 1,7 18 10 WSW 1022,3 29
20.01.2020 17:00:00 4,7 1,4 18 10 WSW 1022,7 40
20.01.2020 16:00:00 4,7 1,0 18 10 WSW 1023,4 45
20.01.2020 15:00:00 4,7 0,8 14 8 WSW 1024,0 45
20.01.2020 14:00:00 4,4 0,9 18 10 WSW 1024,5 45
20.01.2020 13:00:00 3,8 0,7 18 10 WSW 1025,5 45
20.01.2020 12:00:00 2,9 -0,2 18 10 WSW 1026,1 45
20.01.2020 11:00:00 2,4 -1,2 18 10 WSW 1026,4 45
20.01.2020 10:00:00 2,0 -2,0 18 10 WSW 1027,1 45
20.01.2020 09:00:00 1,4 -2,7 14 8 SW 1027,8 50
20.01.2020 08:00:00 0,8 -3,1 11 6 SW 1028,1 50
20.01.2020 07:00:00 0,5 -3,8 14 8 SW 1028,4 50
20.01.2020 06:00:00 0,3 -4,3 14 8 SW 1028,8 50
20.01.2020 05:00:00 -0,1 -4,2 11 6 SW 1029,7 50
20.01.2020 04:00:00 -0,1 -3,8 14 8 SW 1030,1 50
20.01.2020 03:00:00 0,0 -3,9 11 6 SW 1031,0 50
20.01.2020 02:00:00 -0,1 -4,0 11 6 SW 1031,5 50
20.01.2020 01:00:00 -0,2 -3,7 7 4 SW 1031,3 50
20.01.2020 00:00:00 -0,1 -4,0 4 2 WSW 1031,3 50
19.01.2020 23:00:00 -0,4 -4,3 7 4 WSW 1031,5 50
19.01.2020 22:00:00 0,1 -3,6 7 4 NW 1031,2 50
19.01.2020 21:00:00 -0,1 -3,8 7 4 W 1030,9 50
19.01.2020 20:00:00 0,3 -3,3 11 6 W 1030,3 50
19.01.2020 19:00:00 0,9 -3,4 7 4 W 1030,3 50
19.01.2020 18:00:00 1,0 -2,9 11 6 W 1029,1 50
19.01.2020 17:00:00 0,8 -2,6 7 4 W 1028,0 50
19.01.2020 16:00:00 1,7 -2,3 7 4 W 1026,7 50
19.01.2020 15:00:00 3,7 -2,1 7 4 W 1026,1 50
19.01.2020 14:00:00 4,5 -1,9 11 6 W 1025,0 50
19.01.2020 13:00:00 4,0 -1,6 11 6 W 1024,1 50
19.01.2020 12:00:00 3,2 -1,2 11 6 W 1023,1 50
19.01.2020 11:00:00 1,8 -0,6 11 6 WSW 1022,2 50
19.01.2020 10:00:00 0,9 -0,6 11 6 WSW 1021,2 50
19.01.2020 09:00:00 0,4 -0,5 7 4 SSW 1019,8 50
19.01.2020 08:00:00 0,0 -0,7 11 6 WSW 1018,6 50
19.01.2020 07:00:00 0,7 0,1 11 6 SW 1016,9 50
19.01.2020 06:00:00 1,3 0,4 4 2 SW 1016,0 50
19.01.2020 05:00:00 2,0 1,1 7 4 W 1014,7 50
19.01.2020 04:00:00 2,7 1,5 11 6 W 1013,1 50
19.01.2020 03:00:00 3,6 2,1 14 8 WSW 1011,6 50
19.01.2020 02:00:00 3,7 2,1 14 8 WSW 1010,2 50
19.01.2020 01:00:00 3,7 1,9 14 8 SW 1008,9 50
19.01.2020 00:00:00 4,0 1,7 14 8 SW 1008,1 50
18.01.2020 23:00:00 4,2 1,9 14 8 WSW 1007,5 50
18.01.2020 22:00:00 4,1 1,8 18 10 SW 1006,9 50
18.01.2020 21:00:00 4,4 1,6 18 10 SW 1006,5 50
18.01.2020 20:00:00 4,3 1,7 18 10 SSW 1006,2 50
18.01.2020 19:00:00 4,5 1,9 18 10 SSW 1006,0 50
18.01.2020 18:00:00 4,8 1,8 22 12 SSW 1005,9 30
18.01.2020 17:00:00 4,9 2,4 18 10 SSW 1005,8 50
18.01.2020 16:00:00 4,4 3,5 11 6 SSW 1005,7 45

tt = Température de l'air
td = dewpoint
ff = Vitesse du vent
dd = Direction du vent
ppp = reduced air pressure
vv = visibility

stations d'obs. à proximité